Wind_Speed
48 47 45 39 33 30 33 32 30 30 27 27 27 26 27 27 24 22 21 21 21 20 19 19 20 20 22 25 29 31 32 32 30 27 26 26 26 26 27 29 31 32 34 36
50 46 40 35 33 34 35 32 30 29 27 27 27 27 25 24 22 19 18 18 18 18 18 19 21 24 27 31 33 33 31 28 25 24 25 26 27 29 30 31 33 35 37 40
49 43 39 37 35 37 36 33 30 28 27 28 28 26 24 21 19 16 16 17 17 18 18 21 25 29 32 34 34 32 29 28 27 27 27 28 30 31 34 36 39 41 44 46
51 46 44 41 38 36 35 32 30 28 28 28 28 25 22 20 18 17 18 18 19 20 22 25 29 32 33 32 30 29 29 29 29 30 31 33 35 37 39 41 43 46 47 49
55 51 47 43 37 34 32 31 29 27 27 28 27 25 21 19 19 19 20 21 22 23 26 28 29 29 28 27 27 28 29 30 32 33 35 37 38 40 42 43 45 48 50 52
53 50 47 41 36 33 32 31 30 28 28 29 28 26 21 20 21 23 24 25 25 26 28 28 26 25 25 26 27 28 29 31 32 34 36 38 40 43 45 47 50 52 54 56
52 50 48 42 37 34 33 33 31 30 30 29 29 28 24 23 24 26 27 27 26 26 26 26 25 24 25 26 27 29 30 32 34 36 39 41 44 46 49 51 53 55 56 58
50 49 44 39 35 31 32 33 31 29 29 29 30 30 27 26 26 27 27 26 25 25 25 23 23 24 25 26 29 31 34 36 38 40 42 44 47 49 51 53 55 57 59 61
42 41 38 34 32 32 33 31 29 29 29 28 28 27 24 24 24 24 23 22 23 24 23 23 23 25 27 30 32 34 36 39 40 42 44 46 49 51 54 56 59 61 63 66
38 36 34 33 34 34 32 29 29 28 28 27 26 24 20 19 20 19 19 19 21 23 23 24 27 29 32 34 35 36 38 40 42 45 47 50 53 56 58 59 61 64 67 70
38 37 36 36 35 33 31 29 27 26 25 22 19 18 17 17 19 20 21 21 22 24 26 28 30 33 35 36 38 39 41 44 48 52 56 58 60 62 64 67 70 73 75 78
36 35 34 33 32 31 29 27 25 22 18 16 14 15 17 19 21 22 23 23 24 25 27 30 32 34 36 38 41 44 48 52 55 59 62 64 66 69 72 75 78 81 83 86
33 32 32 32 31 29 26 23 21 19 17 15 15 17 19 21 22 23 24 24 26 28 31 33 34 36 39 43 47 50 54 57 61 63 66 69 72 75 78 81 85 88 90 93
30 29 28 25 23 22 21 20 19 18 16 15 15 17 20 23 23 23 23 25 28 30 33 34 37 40 45 49 53 57 61 64 67 69 72 75 78 81 84 87 90 93 96 98
26 24 23 23 21 20 19 19 19 18 17 17 17 19 22 24 21 21 23 26 29 32 35 38 42 46 50 55 59 63 66 69 72 74 77 79 82 86 89 91 94 96 97 97
24 22 22 21 20 19 19 20 20 20 21 20 18 18 20 20 21 23 26 29 32 35 39 43 47 52 56 61 64 68 71 73 76 78 81 84 87 90 92 93 93 93 92 90
28 26 25 23 21 21 22 22 21 20 20 18 16 16 18 21 25 27 30 33 37 41 45 49 54 58 62 65 68 71 74 76 79 82 86 90 92 92 91 90 88 85 82 78
20 20 20 20 21 22 22 22 21 20 19 18 18 20 23 26 29 32 36 40 44 48 52 55 59 62 65 68 71 73 75 78 82 87 91 93 92 89 86 82 78 75 72 69
15 16 17 18 20 20 21 20 21 20 21 22 24 26 28 32 35 38 42 47 50 53 56 59 63 65 68 70 73 76 79 82 87 90 91 89 86 82 77 72 69 68 66 66
16 17 18 18 19 20 20 19 20 22 24 26 30 32 35 38 41 44 48 51 54 57 60 63 65 68 70 73 76 79 83 86 88 88 86 82 78 74 70 67 66 66 67 69
15 15 16 16 17 19 19 19 22 25 28 30 34 37 40 43 47 50 53 56 58 61 64 66 68 70 73 76 80 84 87 88 86 83 79 74 71 69 67 66 67 70 72 75
17 18 18 18 19 21 22 24 26 29 32 35 38 42 45 48 51 54 56 59 61 64 66 68 70 74 77 82 85 88 87 84 80 75 72 69 67 68 68 70 72 76 80 83
20 20 20 21 24 25 27 29 31 34 37 40 43 46 49 51 54 56 59 61 64 67 69 71 74 78 83 86 87 87 84 78 73 69 68 67 67 69 72 75 78 82 87 91
24 25 24 25 28 32 33 35 37 39 41 44 46 48 50 53 55 58 61 64 67 69 71 74 78 83 86 87 87 84 79 72 68 66 66 68 70 72 76 80 85 89 93 96
28 27 27 29 33 36 37 39 41 43 45 47 48 50 51 54 57 60 63 66 69 71 73 77 82 85 86 85 82 77 72 68 66 66 68 70 74 78 82 86 89 92 92 90
32 30 31 32 34 38 40 43 46 48 49 51 52 53 55 57 60 63 66 68 70 73 77 81 84 85 84 80 74 70 67 66 67 69 72 76 81 85 88 89 87 83 78 72
Wind_Direction
211 215 217 217 220 221 223 224 226 227 227 229 232 236 246 259 266 268 267 264 264 261 257 254 255 263 272 278 283 285 287 287 286 285 286 288 289 289 287 285 286 287 289 290
211 217 218 220 219 218 221 222 226 228 228 232 236 242 250 260 264 265 262 258 256 255 255 256 265 276 282 286 288 287 285 283 282 283 284 287 290 291 292 294 296 297 297 297
214 215 220 223 221 219 220 222 228 232 230 232 237 244 252 260 264 265 260 255 252 253 257 264 273 280 284 286 286 286 287 287 287 288 290 293 296 299 300 301 301 301 301 302
215 216 220 223 223 222 222 225 231 233 232 233 236 246 251 259 261 263 262 258 255 258 264 271 276 280 282 283 285 287 289 290 292 294 296 298 300 301 302 301 302 302 302 301
214 215 217 221 223 223 220 224 231 235 235 237 240 248 252 257 258 261 263 263 264 267 270 274 277 280 281 283 286 289 292 294 297 298 299 300 301 301 301 300 300 299 298 296
211 212 216 218 220 218 216 222 232 237 237 240 244 250 254 258 255 257 260 262 265 268 270 272 275 279 282 284 288 291 295 298 299 299 300 300 300 299 298 297 296 295 294 293
205 208 213 213 213 213 215 223 233 240 242 245 247 254 258 258 255 255 257 259 262 265 267 269 275 282 287 291 294 295 295 294 295 296 297 297 297 297 297 297 298 298 298 297
202 204 207 208 211 213 219 226 235 243 249 251 253 258 260 256 252 251 253 256 260 265 270 278 287 290 292 292 292 291 292 293 294 295 296 297 298 299 300 301 302 301 301 300
198 201 203 204 207 213 220 227 235 242 248 249 252 255 253 248 245 245 250 256 264 273 283 288 287 286 287 287 288 290 291 293 294 297 299 301 302 302 303 303 303 303 302 301
193 197 201 205 210 215 221 226 234 239 243 245 248 250 248 247 248 251 257 265 273 282 285 285 286 287 288 289 290 291 292 295 298 300 301 302 302 302 302 302 302 302 301 300
192 199 204 207 211 216 220 225 231 236 239 240 244 251 252 255 260 265 270 275 280 283 284 286 287 288 290 292 294 295 297 299 301 302 302 302 302 302 302 301 301 300 299 298
191 195 200 205 209 214 217 221 225 229 233 238 247 256 262 266 270 274 279 283 285 284 284 285 288 292 295 297 298 299 300 300 301 301 302 302 301 301 300 300 299 298 298 297
184 189 194 199 205 210 213 217 222 227 234 240 247 257 263 269 273 279 287 290 290 290 291 295 296 297 297 298 299 300 301 301 301 302 302 301 301 301 300 299 299 298 297 297
186 190 194 198 203 209 214 218 224 230 237 241 245 253 262 267 274 286 292 293 293 295 298 299 299 298 299 300 302 303 303 303 303 302 302 302 302 301 300 299 298 298 297 297
184 187 191 195 200 206 213 219 225 231 237 240 240 246 257 272 286 291 291 293 296 300 302 302 302 302 303 303 303 304 303 303 303 302 302 302 302 301 301 300 299 298 298 297
190 196 199 202 205 210 216 222 228 234 240 243 241 244 259 278 284 287 292 298 302 304 305 305 305 305 304 304 303 303 302 302 302 302 302 302 302 302 302 301 300 298 298 297
202 205 206 208 214 219 222 229 235 241 247 250 248 254 268 278 285 292 297 301 303 304 305 306 306 305 304 303 302 302 302 302 303 303 303 304 304 303 302 300 299 298 298 299
204 209 212 213 216 220 224 232 239 247 255 260 263 269 277 284 290 296 301 302 303 304 305 305 305 304 303 303 302 303 303 304 305 305 306 306 305 303 301 299 298 299 300 301
216 220 224 226 228 234 239 240 246 253 259 266 272 277 283 288 293 298 300 302 304 305 305 305 305 304 304 304 305 305 306 307 308 308 307 306 304 301 299 299 300 301 302 302
235 237 238 239 240 242 246 248 252 257 263 271 278 283 288 292 296 299 302 304 304 304 304 304 305 305 306 307 307 308 309 309 309 308 307 304 302 300 299 299 300 301 303 303
239 240 241 241 242 244 250 253 259 266 273 278 283 288 292 295 297 299 302 303 304 305 305 306 307 308 309 309 310 310 311 311 310 308 305 303 301 300 299 299 301 302 303 303
243 242 243 246 248 252 259 262 267 273 278 283 287 290 293 296 299 303 305 306 306 307 308 309 310 310 311 311 311 312 312 311 309 307 305 303 302 301 301 302 304 305 305 305
248 250 250 255 261 263 266 272 277 280 285 289 292 296 300 303 305 306 307 307 308 309 310 310 311 311 311 312 313 313 312 311 309 307 306 305 304 304 305 306 306 306 306 306
251 252 257 264 270 274 278 281 284 289 293 297 300 303 305 306 307 308 308 309 309 310 310 310 311 312 313 314 313 312 311 310 309 308 307 307 307 307 308 308 308 308 307 306
259 262 265 269 274 279 284 288 292 295 298 300 303 304 305 306 306 307 308 308 308 308 309 311 313 314 314 314 313 312 311 310 309 309 309 310 310 310 309 308 308 308 308 309
265 270 272 275 279 283 288 292 295 297 299 301 302 302 303 304 305 306 306 306 307 309 311 313 314 314 314 313 312 311 311 311 311 311 312 312 311 310 309 308 308 310 311 312
Height
5740 5747 5754 5766 5774 5781 5784 5788 5793 5798 5802 5807 5810 5812 5814 5815 5817 5818 5818 5818 5818 5818 5819 5819 5820 5820 5820 5820 5818 5817 5815 5812 5809 5806 5803 5800 5798 5796 5794 5791 5789 5786 5784 5781
5735 5743 5755 5763 5769 5774 5779 5785 5790 5795 5799 5803 5806 5809 5810 5811 5812 5813 5814 5814 5814 5814 5815 5815 5815 5815 5813 5812 5810 5809 5807 5805 5803 5800 5797 5795 5792 5789 5787 5785 5782 5779 5776 5773
5733 5746 5753 5759 5765 5770 5775 5782 5788 5791 5794 5798 5801 5805 5807 5808 5808 5808 5809 5809 5810 5810 5810 5811 5810 5808 5807 5805 5802 5800 5798 5796 5795 5793 5791 5789 5786 5783 5780 5777 5774 5770 5767 5764
5730 5742 5748 5754 5761 5767 5773 5781 5784 5786 5789 5793 5797 5800 5803 5804 5803 5804 5805 5805 5805 5805 5805 5805 5804 5802 5800 5798 5796 5794 5791 5789 5787 5785 5783 5781 5778 5775 5772 5768 5765 5761 5757 5753
5726 5735 5742 5750 5759 5766 5772 5777 5780 5782 5785 5789 5792 5795 5800 5800 5799 5799 5800 5801 5801 5800 5800 5799 5797 5796 5794 5792 5790 5788 5785 5783 5780 5778 5775 5773 5769 5766 5763 5759 5755 5751 5747 5742
5724 5733 5741 5750 5757 5762 5768 5773 5775 5777 5780 5785 5787 5790 5796 5796 5795 5795 5795 5796 5796 5795 5793 5792 5791 5790 5788 5786 5784 5782 5779 5776 5773 5770 5767 5764 5760 5756 5752 5748 5744 5739 5734 5729
5718 5728 5737 5745 5752 5758 5764 5769 5771 5773 5776 5781 5782 5785 5791 5792 5790 5789 5790 5790 5789 5788 5786 5785 5784 5783 5782 5780 5778 5775 5771 5768 5765 5761 5758 5754 5749 5745 5740 5736 5731 5726 5721 5715
5715 5724 5734 5743 5750 5756 5761 5765 5768 5771 5774 5777 5778 5779 5785 5785 5784 5783 5784 5783 5782 5780 5780 5779 5778 5776 5775 5773 5770 5766 5762 5758 5755 5751 5747 5743 5738 5733 5728 5723 5718 5712 5707 5701
5716 5726 5734 5741 5748 5753 5756 5760 5763 5766 5769 5771 5772 5774 5778 5778 5777 5778 5779 5778 5775 5774 5774 5772 5770 5769 5767 5764 5761 5757 5753 5749 5745 5741 5736 5732 5727 5722 5717 5711 5704 5698 5692 5686
5718 5726 5732 5739 5744 5748 5753 5756 5759 5762 5764 5766 5767 5769 5772 5772 5772 5773 5773 5772 5770 5768 5766 5764 5763 5761 5758 5755 5752 5748 5744 5740 5736 5732 5727 5722 5716 5710 5704 5698 5691 5684 5677 5670
5717 5725 5731 5736 5741 5746 5750 5753 5755 5758 5760 5762 5763 5767 5766 5766 5766 5766 5766 5765 5764 5762 5759 5757 5755 5752 5750 5746 5743 5739 5735 5732 5727 5721 5716 5710 5703 5696 5690 5683 5676 5668 5660 5652
5716 5722 5728 5734 5739 5742 5745 5748 5752 5755 5758 5759 5760 5764 5760 5760 5759 5759 5758 5758 5757 5754 5752 5750 5748 5745 5741 5737 5734 5730 5726 5721 5715 5709 5702 5696 5689 5681 5674 5666 5658 5650 5641 5632
5716 5722 5726 5730 5736 5739 5742 5746 5749 5752 5754 5755 5756 5759 5755 5754 5752 5751 5751 5750 5748 5746 5744 5742 5740 5736 5732 5728 5723 5719 5713 5707 5701 5694 5686 5679 5671 5664 5656 5647 5638 5629 5620 5611
5717 5722 5727 5732 5735 5738 5740 5743 5746 5748 5750 5751 5752 5751 5748 5746 5745 5745 5744 5742 5740 5738 5736 5734 5730 5726 5722 5716 5711 5705 5698 5692 5684 5677 5669 5662 5654 5645 5637 5627 5617 5607 5596 5586
5717 5721 5724 5728 5731 5734 5737 5739 5741 5743 5744 5746 5746 5744 5741 5739 5739 5738 5736 5734 5731 5729 5726 5722 5719 5714 5709 5703 5697 5690 5682 5675 5667 5660 5652 5644 5635 5625 5615 5605 5593 5582 5571 5560
5715 5719 5722 5725 5728 5731 5733 5734 5736 5737 5737 5738 5738 5738 5736 5734 5733 5731 5729 5726 5723 5719 5715 5711 5706 5701 5696 5689 5682 5674 5667 5659 5651 5642 5633 5624 5614 5603 5592 5580 5568 5557 5546 5536
5712 5715 5719 5722 5724 5726 5728 5728 5729 5730 5730 5731 5732 5732 5731 5729 5727 5724 5721 5717 5713 5708 5703 5698 5693 5687 5681 5674 5666 5659 5651 5643 5634 5624 5613 5602 5592 5580 5568 5555 5543 5533 5523 5515
5708 5711 5714 5717 5720 5721 5725 5724 5724 5724 5724 5725 5725 5725 5724 5722 5719 5715 5711 5706 5701 5696 5691 5685 5679 5673 5666 5659 5651 5642 5634 5625 5615 5603 5591 5580 5568 5556 5544 5532 5522 5512 5504 5496
5706 5708 5710 5712 5714 5716 5717 5718 5718 5719 5718 5718 5718 5717 5715 5712 5709 5705 5700 5694 5689 5684 5678 5672 5665 5658 5650 5642 5633 5624 5615 5605 5594 5581 5568 5556 5544 5533 5522 5512 5503 5495 5487 5479
5701 5703 5705 5706 5708 5709 5711 5711 5712 5713 5712 5711 5709 5707 5704 5700 5697 5694 5688 5683 5678 5672 5665 5658 5650 5641 5633 5624 5615 5606 5596 5585 5573 5559 5546 5534 5522 5512 5503 5495 5486 5477 5469 5461
5696 5697 5699 5700 5701 5702 5704 5705 5705 5706 5705 5702 5699 5696 5692 5689 5685 5681 5675 5670 5664 5657 5649 5641 5632 5624 5615 5607 5597 5587 5576 5564 5551 5538 5526 5514 5504 5494 5486 5478 5468 5459 5450 5442
5691 5692 5693 5694 5695 5698 5697 5697 5698 5697 5695 5692 5689 5685 5681 5676 5671 5666 5660 5654 5648 5640 5633 5624 5615 5607 5598 5590 5579 5567 5555 5543 5530 5519 5508 5497 5488 5477 5468 5460 5450 5440 5429 5420
5684 5687 5688 5689 5690 5690 5688 5688 5687 5685 5683 5679 5676 5671 5666 5661 5656 5650 5644 5638 5631 5623 5615 5606 5598 5589 5579 5568 5556 5544 5532 5521 5510 5500 5490 5481 5472 5462 5451 5441 5431 5421 5409 5395
5677 5679 5681 5681 5680 5678 5678 5676 5675 5672 5669 5666 5662 5657 5651 5646 5640 5635 5628 5621 5614 5606 5598 5590 5581 5571 5559 5546 5534 5523 5512 5502 5492 5484 5475 5466 5456 5447 5436 5424 5411 5398 5385 5370
5669 5671 5672 5672 5670 5667 5666 5664 5662 5659 5655 5652 5648 5643 5638 5633 5627 5621 5613 5606 5599 5591 5583 5573 5562 5551 5539 5527 5514 5503 5494 5485 5477 5469 5460 5450 5439 5428 5417 5405 5391 5376 5363 5344
5660 5663 5663 5663 5661 5659 5656 5652 5649 5646 5642 5638 5634 5630 5625 5619 5613 5606 5599 5591 5584 5575 5566 5555 5544 5533 5521 5509 5498 5488 5479 5471 5462 5453 5444 5433 5421 5408 5395 5382 5372 5360 5343 5329